TimeCDT,TemperatureF,Dew PointF,Humidity,Sea Level PressureIn,VisibilityMPH,Wind Direction,Wind SpeedMPH,Gust SpeedMPH,PrecipitationIn,Events,Conditions,WindDirDegrees,DateUTC
12:51 AM,66.0,53.1,63,30.06,10.0,NNE,18.4,-,N/A,,Overcast,30,2013-10-22 05:51:00
1:51 AM,64.0,52.0,65,30.07,10.0,NNE,15.0,-,N/A,,Mostly Cloudy,30,2013-10-22 06:51:00
2:51 AM,63.0,52.0,67,30.07,10.0,NNE,13.8,-,N/A,,Scattered Clouds,30,2013-10-22 07:51:00
3:51 AM,62.1,52.0,70,30.07,10.0,NNE,10.4,-,N/A,,Scattered Clouds,20,2013-10-22 08:51:00
4:51 AM,62.1,52.0,70,30.06,10.0,North,13.8,-,N/A,,Partly Cloudy,10,2013-10-22 09:51:00
5:51 AM,61.0,52.0,72,30.07,10.0,North,11.5,-,N/A,,Partly Cloudy,10,2013-10-22 10:51:00
6:51 AM,61.0,51.1,70,30.10,10.0,NNE,8.1,-,N/A,,Mostly Cloudy,30,2013-10-22 11:51:00
7:51 AM,59.0,50.0,72,30.13,10.0,NNE,10.4,-,N/A,,Clear,30,2013-10-22 12:51:00
8:51 AM,61.0,48.0,62,30.16,10.0,NNE,10.4,-,N/A,,Clear,30,2013-10-22 13:51:00
9:51 AM,66.0,46.0,48,30.17,10.0,NE,8.1,-,N/A,,Clear,40,2013-10-22 14:51:00
10:51 AM,70.0,44.1,39,30.17,10.0,NE,9.2,-,N/A,,Clear,40,2013-10-22 15:51:00
11:51 AM,73.9,43.0,33,30.17,10.0,NNE,8.1,-,N/A,,Clear,30,2013-10-22 16:51:00
12:51 PM,75.9,41.0,29,30.14,10.0,NE,10.4,-,N/A,,Clear,50,2013-10-22 17:51:00
1:51 PM,78.1,39.0,25,30.12,10.0,NE,10.4,-,N/A,,Clear,40,2013-10-22 18:51:00
2:51 PM,80.1,36.0,20,30.09,10.0,NNE,10.4,-,N/A,,Clear,20,2013-10-22 19:51:00
3:51 PM,82.0,34.0,18,30.08,10.0,NNE,8.1,-,N/A,,Clear,20,2013-10-22 20:51:00
4:51 PM,81.0,33.1,18,30.07,10.0,Variable,5.8,-,N/A,,Clear,0,2013-10-22 21:51:00
5:51 PM,80.1,34.0,19,30.07,10.0,NE,5.8,-,N/A,,Clear,50,2013-10-22 22:51:00
6:51 PM,73.0,39.0,29,30.09,10.0,ENE,4.6,-,N/A,,Clear,70,2013-10-22 23:51:00
7:51 PM,64.0,41.0,43,30.11,10.0,ENE,5.8,-,N/A,,Clear,70,2013-10-23 00:51:00
8:51 PM,57.9,43.0,58,30.12,10.0,NE,6.9,-,N/A,,Clear,40,2013-10-23 01:51:00
9:51 PM,55.9,44.1,64,30.13,10.0,North,3.5,-,N/A,,Clear,10,2013-10-23 02:51:00
10:51 PM,54.0,43.0,66,30.14,10.0,North,5.8,-,N/A,,Clear,360,2013-10-23 03:51:00
11:51 PM,52.0,43.0,71,30.14,10.0,North,8.1,-,N/A,,Clear,10,2013-10-23 04:51:00